Regional Weather Roundup
Issued by NWS

Home | Current Version | Previous Version | Text Only | Print | Product List | Glossary On
Versions: 1 2 3 4 5 6 7 8 9 10 11 12 13 14 15 16 17 18 19 20 21 22 23 24 25 26 27 28 29 30 31 32 33 34 35 36 37 38 39 40 41 42 43 44 45 46 47 48 49 50
000
ASUS43 KFSD 281202
RWRSD

WEATHER ROUNDUP FOR SOUTH DAKOTA
NATIONAL WEATHER SERVICE SIOUX FALLS SD
700 AM CDT TUE MAR 28 2017

NOTE: "FAIR" INDICATES FEW OR NO CLOUDS BELOW 12,000 FEET WITH NO
SIGNIFICANT WEATHER AND/OR OBSTRUCTIONS TO VISIBILITY.


SDZ001>005-009-010-012>017-281300-
NORTHWEST AND NORTH CENTRAL SOUTH DAKOTA

CITY           SKY/WX    TMP DP  RH WIND       PRES   REMARKS
BUFFALO          N/A     41  33  73 CALM      29.93R
FAITH            N/A     41  36  82 MISG      29.98R
MOBRIDGE       MOCLDY    38  30  73 E6        30.01R
$$

SDZ012>016-024>037-041>051-057-063-072>074-281300-
SOUTHWEST AND SOUTH CENTRAL SOUTH DAKOTA

CITY           SKY/WX    TMP DP  RH WIND       PRES   REMARKS
RAPID CTY ARPT CLOUDY    39  32  76 NE10      29.96R
PIERRE         CLOUDY    42  36  79 E7        30.00R
CUSTER         CLOUDY    40  35  83 NE5       29.94S
ELLSWORTH AFB  CLOUDY    40  33  76 CALM      29.96R
PHILIP         CLOUDY    42  38  85 E7        29.97R
PINE RIDGE     RAIN      47  46  97 CALM      29.95R FOG
SPEARFISH      FAIR      39  36  87 CALM      29.97R
WINNER         CLOUDY    46  42  86 S8        30.02R
$$

SDZ004>011-016>023-039-040-281300-
NORTHEAST SOUTH DAKOTA

CITY           SKY/WX    TMP DP  RH WIND       PRES   REMARKS
ABERDEEN       CLOUDY    31  27  85 E5        30.08R WCI  26
WATERTOWN      CLEAR     31  30  96 CALM      30.07R
BROOKINGS      CLOUDY    34  33  96 CALM      30.07S
SISSETON         N/A     31  31 100 N5        30.10R WCI  26
$$

SDZ017-020-022-023-036>040-048>070-281300-
SOUTHEAST SOUTH DAKOTA

CITY           SKY/WX    TMP DP  RH WIND       PRES   REMARKS
SIOUX FALLS    FOG       30  29  96 NE3       30.08R VSB 1
HURON          PTCLDY    34  34 100 SE7       30.06R WCI  28
CHAMBERLAIN    PTCLDY    43  41  94 E8        30.02R
MITCHELL       CLOUDY    32  32 100 E5        30.06R FOG     WCI  27
YANKTON        PTCLDY    37  36  93 E6        30.06R
$$

ABBREVIATIONS USED IN REMARKS
   TC - TEMPERATURE IN CELSIUS
  WCI - WIND CHILL INDEX
   HX - HEAT INDEX
  VSB - VISIBILITY




USA.gov is the U.S. government's official web portal to all federal, state and local government web resources and services.